Location: Bois-d�Arcy
(47.5468°N, 3.7163°E)
Time: 09:35:13
(UTC+00:00)

Daily predictions for brighter satellites

Satellite Brightness Start Highest point End
(mag) Time Altitude Azimuth Time Altitude Azimuth Time Altitude Azimuth
STARLINK-1096 3.9 20:04:57 10° WNW 20:09:03 62° SW 20:13:08 10° SE
Okean 3 3.5 20:05:11 10° S 20:09:28 69° E 20:13:46 10° NNE
STARLINK-1104 4.2 20:07:11 10° WNW 20:11:16 55° NNE 20:15:21 10° E
STARLINK-1230 3.6 20:07:59 10° WSW 20:12:07 82° SSE 20:16:17 10° ENE
STARLINK-1079 3.9 20:09:56 10° WNW 20:14:01 58° SW 20:18:05 10° SE
STARLINK-1144 4.2 20:12:10 10° WNW 20:16:16 57° NNE 20:20:22 10° E
SL-4 R/B 2.5 20:14:08 10° NW 20:16:58 35° WSW 20:19:37 10° S
STARLINK-1243 3.6 20:12:57 10° WSW 20:17:06 87° SSE 20:21:17 10° ENE
Cosmos 2221 Rocket 3.6 20:12:49 10° S 20:17:20 77° E 20:21:55 10° NNE
STARLINK-1116 4.0 20:14:56 10° WNW 20:18:59 53° SW 20:23:00 10° SE
SPOT 5 4.3 20:15:04 10° ESE 20:19:29 28° ENE 20:23:57 10° N
NOSS 8 (F) 4.4 20:17:14 10° SSW 20:20:24 48° SE 20:23:20 10° NE
Meteor 1-13 Rocket 4.3 20:15:27 10° S 20:20:58 63° E 20:26:40 10° NNE
STARLINK-1103 4.1 20:17:09 10° WNW 20:21:16 60° NNE 20:25:21 10° ESE
STARLINK-1236 3.7 20:17:55 10° WSW 20:22:04 88° NNW 20:26:14 10° ENE
ERS-1 Rocket 4.0 20:20:08 10° SE 20:24:35 33° ENE 20:29:03 10° N
STARLINK-1101 4.0 20:22:07 10° WNW 20:26:15 63° NNE 20:30:22 10° ESE
STARLINK-1094 4.2 20:24:56 10° WNW 20:28:54 46° SW 20:32:47 10° SE
USA 238 DEB 4.5 20:23:43 10° NW 20:30:38 49° NE 20:37:47 10° ESE
USA 238 4.5 20:23:50 10° NW 20:30:44 49° NE 20:37:53 10° ESE
USA 245 2.9 20:27:57 10° SSE 20:30:48 45° ENE 20:33:15 10° N
STARLINK-1102 3.9 20:27:07 10° WNW 20:31:15 66° NNE 20:35:22 10° ESE
STARLINK-1269 3.8 20:27:54 10° WSW 20:32:03 79° NNW 20:36:13 10° ENE
Cosmos 2278 Rocket 3.0 20:27:40 10° SW 20:33:15 59° WNW 20:38:54 10° NNE
TSX-5 4.4 20:27:54 10° SSW 20:33:28 57° ESE 20:37:47 10° NE
STARLINK-1117 4.3 20:29:56 10° WNW 20:33:51 42° SW 20:37:34 11° SSE
Okean 1 Rocket 3.7 20:29:39 10° N 20:33:54 42° ENE 20:37:54 11° SE
Resurs 01 Rocket 2.2 20:29:57 10° S 20:34:21 58° W 20:38:45 10° NNW
Cosmos 1741 Rocket 4.0 20:29:12 10° NNW 20:34:28 88° ENE 20:39:41 10° SSE
Okean 2 Rocket 3.5 20:30:17 10° NNW 20:34:40 64° W 20:39:01 10° S
Nadezhda 4 Rocket 4.4 20:29:30 10° SSE 20:35:14 43° E 20:40:57 10° NNE
STARLINK-1111 3.8 20:32:05 10° WNW 20:36:14 69° NNE 20:40:21 10° ESE
STARLINK-1200 3.9 20:32:52 10° WSW 20:37:01 75° NNW 20:41:10 10° ENE
MetOp-B 4.2 20:32:50 10° SSE 20:38:11 89° WSW 20:43:36 10° NNW
STARLINK-1078 4.5 20:34:56 10° WNW 20:38:49 39° SW 20:42:21 12° SSE
SL-8 R/B 3.7 20:36:24 10° WNW 20:41:13 83° SSW 20:46:02 10° ESE
STARLINK-1073 3.8 20:37:04 10° WNW 20:41:13 73° NNE 20:45:22 10° ESE
STARLINK-1192 3.9 20:37:52 10° WSW 20:42:01 71° NNW 20:46:10 10° ENE
Cosmos 2279 Rocket 4.2 20:36:27 10° N 20:42:42 79° W 20:48:53 10° S
Cosmos 1850 Rocket 4.2 20:38:40 10° NNW 20:44:01 76° WSW 20:49:21 10° SSE
Cosmos 371 Rocket 3.7 20:40:23 10° SSW 20:45:13 69° WNW 20:50:07 10° NNE
ATLAS 3B CENTAUR R/B 4.4 20:35:01 10° SW 20:45:30 23° S 20:50:57 12° SE
STARLINK-1121 3.7 20:42:03 10° WNW 20:46:12 77° NNE 20:50:08 11° ESE
SL-4 R/B 3.8 20:43:32 10° S 20:46:39 17° SE 20:49:47 10° E
STARLINK-1244 4.0 20:42:52 10° WSW 20:47:00 67° NNW 20:51:08 10° ENE
Cosmos 1110 Rocket 4.2 20:42:25 10° S 20:47:23 49° ESE 20:52:22 10° NNE
Terra 2.9 20:44:22 12° SE 20:48:14 32° ENE 20:52:27 10° N
Spot 2 Rocket 3.5 20:44:18 10° SSE 20:49:20 86° WSW 20:54:25 10° NNW
Cosmos 2151 Rocket 4.0 20:44:55 10° NNW 20:49:26 65° W 20:53:54 10° S
Abrixas rocket 2.1 20:46:50 10° W 20:49:45 54° SSW 20:51:50 17° SE
SPOT 1/Viking Rocket 3.6 20:45:17 11° SSE 20:50:13 72° ENE 20:55:22 10° N
STARLINK-1106 3.7 20:47:02 10° WNW 20:51:12 82° NNE 20:54:56 13° ESE
CARTOSAT-1 4.1 20:47:49 13° SE 20:51:22 46° ENE 20:55:31 10° N
NOSS 8 (H) 4.1 20:48:24 10° SSW 20:51:33 61° SE 20:54:34 10° NE
STARLINK-1138 4.1 20:47:52 10° WSW 20:51:59 64° NNW 20:56:07 10° ENE
STARLINK-1112 3.6 20:51:59 10° WNW 20:56:10 86° NNE 20:59:42 14° ESE
STARLINK-1143 4.2 20:52:51 10° WSW 20:56:57 61° NNW 21:01:05 10° ENE
Aureole 2 4.0 20:55:25 10° NNW 20:58:34 89° WSW 21:00:36 18° SSE
STARLINK-1128 3.6 20:56:58 10° WNW 21:01:08 89° SSW 21:04:28 15° ESE
STARLINK-1241 4.3 20:57:54 10° W 21:01:59 58° NNW 21:06:06 10° ENE
Cosmos 1331 Rocket 4.0 20:59:05 10° S 21:04:09 61° ESE 21:09:16 10° NNE
deb Kosmos-1763 4.2 21:00:41 10° NNW 21:04:17 70° WSW 21:06:57 17° SSE
Aureole 2 Rocket 2.2 21:01:52 10° SSW 21:04:57 74° WNW 21:07:56 10° NNE
STARLINK-1113 3.6 21:01:58 10° WNW 21:06:07 84° SSW 21:09:16 17° ESE
STARLINK-1239 4.4 21:02:53 10° W 21:06:58 55° NNW 21:11:04 10° ENE
Cosmos 1733 4.0 21:03:45 10° N 21:07:19 36° ENE 21:09:32 19° SE
Cosmos 1437 Rocket 3.4 21:06:12 10° SSW 21:09:54 52° WNW 21:13:41 10° N
STARLINK-1119 3.6 21:06:58 10° WNW 21:11:07 79° SSW 21:14:04 19° SE
STARLINK-1240 4.5 21:07:53 10° W 21:11:57 53° NNW 21:16:02 10° ENE
Cosmos 1378 3.2 21:09:41 17° S 21:12:26 57° E 21:16:05 10° NNE
ISS -1.4 21:13:48 10° WSW 21:15:34 14° SW 21:17:02 11° SSW
STARLINK-1114 3.6 21:11:56 10° WNW 21:16:04 74° SSW 21:18:49 20° SE
Cosmos 1242 Rocket 4.2 21:15:26 17° ESE 21:16:29 19° E 21:19:07 10° NE
USA 215 4.4 21:10:29 10° E 21:16:34 43° NNE 21:22:39 10° WNW
Cosmos 304 Rocket 4.0 21:11:50 10° SSW 21:16:37 72° WNW 21:21:26 10° NNE
Lacrosse 5 3.6 21:14:48 10° WNW 21:18:32 21° SW 21:22:07 11° S
Cosmos 1092 Rocket 4.1 21:15:31 14° SSE 21:20:40 59° E 21:26:43 10° NNE
STARLINK-1130 (DARKSAT) 3.6 21:16:55 10° WNW 21:21:03 69° SSW 21:23:36 22° SE
NOSS 2-2 (D) 3.0 21:17:49 10° SSW 21:21:21 76° SE 21:25:20 10° NE
CENTAUR R/B 3.6 21:15:31 10° NW 21:23:17 59° NE 21:31:08 13° ESE
Cosmos 1674 Rocket 4.5 21:20:51 10° SSW 21:25:05 48° WNW 21:29:23 10° N
STARLINK-1084 3.7 21:21:55 10° WNW 21:26:02 64° SSW 21:28:23 24° SE
ATLAS 3B R/B 3.9 21:20:11 10° NNW 21:26:17 35° NNE 21:32:33 10° E
SL-27 R/B 3.1 21:24:17 10° N 21:27:45 43° ENE 21:29:28 24° ESE
Cosmos 1378 Rocket 4.1 21:23:35 10° SSW 21:27:56 58° WNW 21:32:16 10° N
NOSS 3-2 (C) 4.3 21:21:15 10° NW 21:28:36 66° NE 21:35:36 16° SE
Cosmos 1766 3.2 21:26:23 10° N 21:30:23 87° E 21:32:47 23° S
STARLINK-1098 3.8 21:26:54 10° WNW 21:30:59 59° SW 21:33:10 25° SE
STARLINK-1123 3.8 21:31:53 10° WNW 21:35:56 55° SW 21:37:56 27° SSE
Cosmos 1943 Rocket 2.1 21:31:56 10° SSW 21:37:25 68° ESE 21:42:59 10° NNE
Cosmos 2297 4.3 21:32:00 10° SW 21:37:38 61° WNW 21:43:20 10° NNE
Cosmos 1900 4.5 21:32:55 10° NW 21:37:57 71° WSW 21:41:01 24° SSE
NOSS 2-2 (E) 3.8 21:35:08 10° SW 21:38:41 60° NW 21:42:50 10° NE
NOSS 3-4 (A) 4.3 21:36:32 21° SSE 21:38:57 28° ESE 21:44:08 10° ENE
NOSS 3-4 (C) 4.3 21:36:40 21° SSE 21:39:03 28° ESE 21:44:14 10° ENE
STARLINK-1097 3.9 21:36:54 10° WNW 21:40:55 51° SW 21:42:44 29° SSE
Cosmos 2082 Rocket 4.1 21:38:31 10° NW 21:42:43 21° W 21:46:53 10° SSW
SeaSat 1 3.7 21:39:43 10° NE 21:43:33 22° ESE 21:44:34 21° SE
STARLINK-1099 4.0 21:41:53 10° WNW 21:45:53 47° SW 21:47:32 30° SSE
Cosmos 1975 Rocket 3.0 21:44:36 22° S 21:47:24 80° E 21:51:50 10° NNE
STARLINK-1212 4.0 21:45:36 10° NW 21:48:35 42° NNE 21:50:47 16° E
STARLINK-1105 4.0 21:46:04 10° NW 21:49:03 42° NNE 21:51:13 16° E
STARLINK-1247 4.0 21:46:57 10° NW 21:49:57 42° NNE 21:52:07 16° E
STARLINK-1227 4.0 21:47:27 10° NW 21:50:26 42° NNE 21:52:32 17° E
BREEZE-M DEB (TANK) 3.8 21:34:14 10° WSW 21:50:42 82° SSE 21:54:46 10° ENE
STARLINK-1104 4.1 21:46:53 10° WNW 21:50:50 43° SW 21:52:18 30° S
Cosmos 292 Rocket 4.0 21:48:20 25° SSE 21:50:51 50° ESE 21:55:33 10° NNE
STARLINK-1226 3.9 21:48:17 10° NW 21:51:18 43° NNE 21:53:23 17° E
BREEZE-M DEB (TANK) 3.2 21:47:32 10° W 21:51:43 67° N 21:55:23 10° E
STARLINK-1215 3.9 21:49:11 10° NW 21:52:12 43° NNE 21:54:16 17° E
Cosmos 2369 Rocket 2.2 21:49:04 16° SSW 21:53:36 66° ESE 21:59:13 10° NNE
STARLINK-1217 3.9 21:51:00 10° NW 21:54:01 44° NNE 21:56:00 18° E
STARLINK-1229 3.9 21:51:55 10° NW 21:54:56 45° NNE 21:56:54 19° E
STARLINK-1144 4.2 21:51:53 10° WNW 21:55:47 40° SW 21:57:05 31° S
STARLINK-1270 3.8 21:52:49 10° WNW 21:55:50 45° NNE 21:57:46 19° E
SPOT 5 3.7 21:53:31 18° SSW 21:57:15 49° W 22:02:28 10° NNW
STARLINK-1189 3.8 21:54:36 10° WNW 21:57:38 46° NNE 21:59:29 20° E
Aureole 3 Rocket 4.4 21:52:12 10° N 21:58:24 71° E 22:03:54 23° SSE
STARLINK-1188 3.8 21:55:31 10° WNW 21:58:33 46° NNE 22:00:22 21° E
ATLAS CENTAUR R/B 2.7 21:59:35 23° ESE 21:59:35 23° ESE 22:02:47 10° ENE
STARLINK-1187 3.6 21:56:37 10° WNW 21:59:39 50° NNE 22:01:14 24° E
STARLINK-1103 4.4 21:56:53 10° WNW 22:00:44 37° SW 22:01:51 31° S
Cosmos 1340 Rocket 4.4 21:57:33 10° NNE 22:00:56 24° ENE 22:02:31 19° ESE
STARLINK-1191 3.7 21:57:58 10° WNW 22:00:59 48° NNE 22:02:40 22° E
STARLINK-1221 3.7 21:58:54 10° WNW 22:01:56 48° NNE 22:03:34 23° E
STARLINK-1222 3.7 21:59:45 10° WNW 22:02:47 49° NNE 22:04:24 23° E
ERS-1 Rocket 4.1 21:59:40 15° SSW 22:03:18 36° W 22:07:58 10° NNW
NOSS 2-2 (C) 4.3 21:59:55 10° WSW 22:03:22 45° NW 22:07:21 10° NNE
STARLINK-1214 3.6 22:00:39 10° WNW 22:03:41 49° NNE 22:05:15 24° E
Cosmos 1025 Rocket 3.6 22:02:58 31° SE 22:04:20 41° E 22:08:23 10° NNE
EXPRESS MD2 4.1 22:00:59 10° W 22:04:44 79° NNW 22:12:31 10° ENE
Okean 2 3.9 22:02:00 19° SSW 22:04:47 59° WNW 22:08:56 10° N
Thor Agena Rocket 4.0 21:59:48 10° NNE 22:04:54 46° E 22:07:12 29° SSE
Cosmos 2026 Rocket 4.0 22:00:23 19° S 22:05:06 88° W 22:11:31 10° N
STARLINK-1101 4.5 22:01:55 10° WNW 22:05:41 34° SW 22:06:38 30° SSW
ATLAS 2AS CENTAUR R/B 3.2 22:00:30 16° S 22:06:53 53° ESE 22:14:33 10° NE
BREEZE M DEB (TANK) 2.1 22:03:33 10° W 22:07:13 71° NNW 22:08:33 21° ENE
Cosmos 1656 Rocket 4.1 22:04:50 28° SSE 22:07:19 44° ESE 22:12:35 10° NE
Cosmos 1553 Rocket 4.0 22:01:55 10° N 22:08:13 71° E 22:11:43 27° SSE
BREEZE-M DEB (TANK) 4.2 21:54:14 10° WNW 22:09:05 81° SSW 22:11:56 23° ESE
Cosmos 1953 3.4 22:05:45 10° N 22:09:25 33° ENE 22:10:41 27° ESE
STARLINK-1228 3.4 22:06:05 10° WNW 22:09:34 68° NNE 22:11:08 30° E
NOSS 3-2 (A) 4.3 22:02:31 10° NW 22:09:58 62° WSW 22:15:10 25° SSE
Cosmos 1470 2.7 22:06:42 10° N 22:10:35 76° E 22:11:51 41° SSE
APEX 4.3 22:06:47 18° SSW 22:11:45 69° ESE 22:17:05 10° NNE
STARLINK-1235 3.2 22:08:48 10° WNW 22:12:02 66° NNE 22:13:11 35° E
Cosmos 968 Rocket 3.4 22:09:55 10° NNW 22:15:06 89° ENE 22:17:31 32° SSE
Cosmos 1455 Rocket 3.4 22:13:11 10° NNW 22:17:27 57° W 22:19:25 29° SSW
Cosmos 1655 Rocket 4.3 22:15:02 28° SSE 22:18:12 54° E 22:24:18 10° NNE
SL-4 R/B 3.3 22:20:18 14° NE 22:20:18 14° NE 22:21:08 10° NNE
ATLAS 5 CENTAUR R/B 2.1 22:21:46 41° SE 22:21:46 41° SE 22:24:06 10° ENE
USA 238 DEB 4.2 22:14:48 10° NW 22:21:45 52° WSW 22:25:51 26° S
USA 238 4.2 22:14:53 10° NW 22:21:52 53° WSW 22:25:58 26° S
Cosmos 1758 3.3 22:20:01 10° N 22:24:05 87° W 22:25:25 42° S
SL-4 R/B 2.3 22:20:58 10° SW 22:25:43 66° SSE 22:30:33 10° ENE
Terra 3.0 22:23:15 19° SSW 22:25:55 34° W 22:30:16 10° NNW
Cosmos 1842 4.2 22:24:08 21° SW 22:26:22 42° WNW 22:30:05 10° N
STARLINK-1234 2.8 22:26:33 10° WNW 22:29:50 89° ENE 22:30:16 64° ESE
STARLINK-1233 4.5 22:31:08 10° WNW 22:35:10 49° NNE 22:39:12 10° E
Cosmos 1503 Rocket 4.0 22:29:55 10° NNW 22:35:16 86° WSW 22:37:35 35° SSE
STARLINK-1209 2.8 22:32:43 10° WNW 22:36:01 79° SSW 22:36:13 74° SSE
Cosmos 2266 Rocket 4.2 22:33:43 31° SSE 22:36:28 54° E 22:42:20 10° NNE
STARLINK-1204 4.4 22:36:08 10° WNW 22:40:11 51° NNE 22:43:58 11° E
Meteor 2-8 Rocket 4.4 22:34:53 10° N 22:41:03 89° W 22:44:07 32° S
Cosmos 2263 4.3 22:39:18 18° SW 22:43:30 75° WNW 22:49:09 10° NNE
STARLINK-1238 4.3 22:41:08 10° WNW 22:45:12 53° NNE 22:48:47 13° E
Cosmos 1536 Rocket 3.5 22:45:43 40° SSW 22:47:14 82° W 22:51:38 10° N
Cosmos 1674 3.6 22:48:20 33° ESE 22:48:39 33° E 22:52:05 10° NNE
STARLINK-1201 4.2 22:46:06 10° WNW 22:50:12 55° NNE 22:53:33 15° E
Cosmos 1271 Rocket 3.4 22:49:29 32° SW 22:50:57 50° WNW 22:54:48 10° N
Cosmos 1242 Rocket 4.0 22:49:25 22° WSW 22:51:07 32° WNW 22:54:30 10° N
STARLINK-60 3.3 22:52:20 19° WSW 22:54:27 64° NNW 22:57:37 10° ENE
Cosmos 1354 Rocket 4.1 22:49:18 10° NNW 22:54:34 68° WSW 22:56:35 38° S
STARLINK-1206 4.2 22:51:05 10° WNW 22:55:12 58° NNE 22:58:21 16° E
Spot 4 4.0 22:53:29 38° S 22:55:15 67° WSW 23:00:06 10° NNW
COSMOS 2455 2.8 22:52:49 32° S 22:55:40 66° ESE 23:01:39 10° NE
Cosmos 883 Rocket 4.5 22:49:57 10° N 22:56:07 74° E 22:58:57 34° SSE
USA 215 3.4 22:52:57 12° ESE 22:59:08 77° NNE 23:05:42 10° NW
STARLINK-1205 4.1 22:56:03 10° WNW 23:00:10 60° NNE 23:03:07 18° E
Cosmos 1707 3.4 22:59:44 34° SW 23:01:00 48° WNW 23:04:48 10° N
Cosmos 2297 Rocket 3.9 22:56:55 10° N 23:01:40 27° NE 23:06:23 10° ESE
Helios 1A 3.8 23:01:35 32° ESE 23:02:56 43° ENE 23:06:55 10° N
Lacrosse 4 Rocket 4.4 23:03:11 10° N 23:04:52 12° NNE 23:06:32 10° NE
STARLINK-1218 4.0 23:01:03 10° WNW 23:05:11 63° NNE 23:07:55 20° E
Cosmos 1174 3.2 23:06:36 80° S 23:06:46 86° SE 23:10:31 10° NE
Cosmos 1726 2.3 23:03:07 10° NNW 23:06:48 60° W 23:07:20 52° SW
ALOS 2 2.5 23:07:47 48° SSE 23:08:59 88° E 23:13:25 10° NNW
Timation 2 Rocket 4.2 23:03:05 10° NNW 23:09:23 65° ENE 23:12:55 26° SE
STARLINK-1254 3.9 23:06:01 10° WNW 23:10:10 67° NNE 23:12:41 23° ESE
Cosmos 2058 Rocket 4.2 23:06:21 10° N 23:10:26 34° ENE 23:11:58 26° ESE
COSMOS 2487 2.5 23:07:01 10° NNW 23:10:27 59° WSW 23:10:32 59° WSW
CENTAUR R/B 3.6 23:06:24 10° NW 23:14:08 48° WSW 23:18:17 29° S
STARLINK-1231 3.8 23:11:00 10° WNW 23:15:09 70° NNE 23:17:27 25° ESE
Meteor 1-16 Rocket 4.2 23:10:18 10° NNW 23:15:47 68° W 23:17:49 38° SSW
Meteor 2-5 Rocket 4.1 23:14:12 35° SE 23:16:09 50° E 23:21:35 10° NNE
Cosmos 1867 4.0 23:12:02 10° NW 23:17:15 47° WSW 23:18:45 37° SSW
ATLAS 3B R/B 2.6 23:10:47 10° NW 23:17:35 76° SW 23:21:09 31° SSE
FALCON 9 DEB 3.5 23:20:07 52° E 23:20:07 52° E 23:22:53 10° ENE
SL-14 R/B 4.5 23:19:11 27° ESE 23:19:34 28° E 23:22:53 10° NNE
STARLINK-1232 3.7 23:15:59 10° WNW 23:20:09 74° NNE 23:22:15 28° ESE
Cosmos 1606 Rocket 3.5 23:16:13 10° N 23:20:34 80° ENE 23:21:36 51° SSE
SeaSat 1 2.8 23:16:31 10° NNE 23:21:24 61° WNW 23:24:20 23° SW
Cosmos 1943 Rocket 4.2 23:17:08 10° W 23:21:41 25° NW 23:26:17 10° N
Cosmos 2098 Rocket 4.3 23:20:08 33° S 23:23:48 83° E 23:31:19 10° N
STARLINK-29 3.1 23:24:02 64° WNW 23:24:19 70° NNW 23:27:32 10° ENE
STARLINK-1208 3.6 23:20:57 10° WNW 23:25:07 79° NNE 23:27:00 31° ESE
NOSS 5 (C) 4.4 23:22:18 10° NW 23:25:30 67° SW 23:25:32 67° SW
ATLAS CENTAUR R/B 3.0 23:25:46 10° NNW 23:27:40 25° NE 23:30:42 10° E
STARLINK-1373 4.4 23:30:05 33° E 23:30:05 33° E 23:32:38 10° ENE
NOSS 3-4 (A) 3.8 23:23:53 12° SW 23:29:20 64° NW 23:35:44 10° NE
NOSS 3-4 (C) 3.8 23:24:01 13° SW 23:29:26 64° NW 23:35:50 10° NE
STARLINK-1271 3.6 23:25:58 10° WNW 23:30:07 83° NNE 23:31:49 35° ESE
STARLINK-1365 4.3 23:31:11 35° ESE 23:31:11 35° ESE 23:33:54 10° ENE
RESURS DK-1 2.3 23:29:48 58° SSE 23:30:20 65° ESE 23:34:28 10° NE
STARLINK-1390 4.3 23:33:34 35° ESE 23:33:34 35° ESE 23:36:16 10° ENE
Cosmos 2084 3.6 23:33:36 53° SSE 23:34:16 60° SE 23:38:41 10° NE
Cosmos 2315 Rocket 4.0 23:28:06 10° NNW 23:34:18 73° W 23:36:59 36° S
STARLINK-1154 3.5 23:30:56 10° WNW 23:35:06 88° NNE 23:36:36 39° ESE
BREEZE-M R/B 3.9 23:31:45 25° SSW 23:35:28 47° SSE 23:39:25 10° E
Cosmos 1626 2.7 23:36:00 43° ESE 23:36:17 43° E 23:39:50 10° NNE
Cosmos 1340 Rocket 4.0 23:33:48 10° NNW 23:37:24 31° W 23:38:06 29° WSW
Cosmos 2369 Rocket 4.1 23:33:25 10° WSW 23:38:07 26° NW 23:42:49 10° N
ATLAS CENTAUR R/B 2.2 23:35:43 23° WSW 23:38:08 49° NW 23:42:08 10° NNE
Okean 1-7 Rocket 3.9 23:37:39 44° SE 23:38:41 57° E 23:43:09 10° NNE
Cosmos 2227 Rocket 3.3 23:33:31 10° NNW 23:38:51 39° NE 23:43:29 13° ESE
STARLINK-1197 3.5 23:35:54 10° WNW 23:40:04 87° SSW 23:41:21 43° ESE
Cosmos 1908 3.5 23:38:22 10° NNW 23:42:05 51° W 23:42:29 48° WSW
Nadezhda 2 Rocket 4.4 23:39:44 37° S 23:42:19 78° E 23:48:29 10° N
Aureole 3 4.2 23:42:00 10° NNW 23:44:31 26° W 23:44:31 26° W
STARLINK-1198 3.5 23:40:52 10° WNW 23:45:02 82° SSW 23:46:07 48° SE
Cosmos 1953 4.0 23:42:34 10° NW 23:45:35 21° W 23:46:22 20° WSW
STARLINK-1199 3.4 23:45:52 10° WNW 23:50:02 77° SSW 23:50:56 53° SE
Landsat 4 3.5 23:46:50 10° NNE 23:50:34 88° ESE 23:51:00 69° S
KORONAS-FOTON 4.5 23:52:25 39° WSW 23:53:09 45° WNW 23:56:53 10° N
STARLINK-1210 3.5 23:50:51 10° WNW 23:55:00 72° SSW 23:55:41 57° SSE
